This is the latest recevied weather packets stored in our database for station/object N2XP-2. If no packets are shown the sender has not sent any weather packets the latest 10 day(s).
| Time | Temp. | Humidity | Pressure | Rain* | Wind** | Luminosity | Snow |
|---|---|---|---|---|---|---|---|
| 1788139616 | 78° F | 86% | 764.8 mmHg | 0 in | 1 mph, 208° | - | - |
| 1788139132 | 78° F | 84% | 764.8 mmHg | 0 in | 2 mph, 198° | - | - |
| 1788139123 | 78° F | 84% | 764.8 mmHg | 0 in | 1 mph, 232° | - | - |
| 1788138497 | 78° F | 85% | 764.8 mmHg | 0 in | 1 mph, 315° | - | - |
| 1788138017 | 78° F | 85% | 764.8 mmHg | 0 in | 2 mph, 203° | - | - |
| 1788137694 | 78° F | 84% | 764.8 mmHg | 0 in | 2 mph, 198° | - | - |
| 1788137260 | 78° F | 84% | 764.8 mmHg | 0 in | 1 mph, 232° | - | - |
| 1788136957 | 78° F | 84% | 764.8 mmHg | 0 in | 1 mph, 184° | - | - |
| 1788136405 | 78° F | 83% | 764.5 mmHg | 0 in | 4 mph, 201° | - | - |
| 1788136057 | 79° F | 83% | 764.5 mmHg | 0 in | 3 mph, 193° | - | - |
| 1788135673 | 79° F | 82% | 764.5 mmHg | 0 in | 3 mph, 187° | - | - |
| 1788135278 | 79° F | 82% | 764.5 mmHg | 0 in | 1 mph, 187° | - | - |
| 1788133715 | 80° F | 80% | 764.5 mmHg | 0 in | 3 mph, 269° | - | - |
| 1788133374 | 80° F | 77% | 764.2 mmHg | 0 in | 1 mph, 190° | - | - |
| 1788133265 | 80° F | 79% | 764.5 mmHg | 0 in | 1 mph, 166° | - | - |
| 1788132917 | 80° F | 79% | 764.4 mmHg | 0 in | 2 mph, 188° | - | - |
| 1788132300 | 80° F | 78% | 764.3 mmHg | 0 in | 3 mph, 229° | - | - |
| 1788131820 | 80° F | 77% | 764.2 mmHg | 0 in | 1 mph, 190° | - | - |
| 1788131460 | 80° F | 77% | 764.2 mmHg | 0 in | 2 mph, 235° | - | - |
| 1788131016 | 80° F | 76% | 764.2 mmHg | 0 in | 2 mph, 190° | - | - |
| 1788130613 | 81° F | 76% | 764.2 mmHg | 0 in | 2 mph, 187° | - | - |
| 1788130305 | 81° F | 76% | 764.2 mmHg | 0 in | 3 mph, 232° | - | - |
| 1788129849 | 81° F | 76% | 764.2 mmHg | 0 in | 2 mph, 200° | - | - |
| 1788129529 | 81° F | 74% | 764.2 mmHg | 0 in | 2 mph, 208° | - | - |
| 1788129471 | 81° F | 76% | 764.2 mmHg | 0 in | 0 mph | - | - |
* Rain latest hour (hover to see other rain measurements)
** Current wind speed in m/s (hover to see current wind gust speed)